Eau Claire, WI

3:55 PM CST on February 23, 2017 (GMT -0600)
Chippewa Valley Regional

Weather History for KEAU - June, 2013

Change the Weather History Date:

Wednesday, June 5, 2013

  Actual Average Record
Temperature  
Mean Temperature 54 °F 64 °F  
Max Temperature 56 °F 76 °F 92 °F (1968)
Min Temperature 52 °F 52 °F 35 °F (1897)
Degree Days  
Heating Degree Days 11 4  
Month to date heating degree days 42 20  
Since 1 June heating degree days 42 20  
Since 1 July heating degree days 8279 7917  
Cooling Degree Days 0 2  
Month to date cooling degree days 0 10  
Year to date cooling degree days 32 42  
Since 1 June cooling degree days 0 10  
Growing Degree Days 3 (Base 50)    
Moisture  
Dew Point 52 °F    
Average Humidity 97    
Maximum Humidity 100    
Minimum Humidity 93    
Precipitation  
Precipitation 0.36 in 0.14 in 2.74 in (1980)
Month to date precipitation 0.55 0.65  
Year to date precipitation 20.60 10.29  
Snow  
Snow 0.00 in 0.00 in 0.00 in ()
Month to date snowfall 0.0 0.0  
Since 1 June snowfall 0.0 0.0  
Since 1 July snowfall 84.3 46.8  
Snow Depth 0.00 in    
Sea Level Pressure  
Sea Level Pressure 30.01 in    
Wind  
Wind Speed 6 mph (East)    
Max Wind Speed 14 mph    
Max Gust Speed 18 mph    
Visibility 6 miles    
Events Rain , Thunderstorm    
T = Trace of Precipitation, MM = Missing Value Source: NWS Daily Summary

Daily Weather History Graph

Daily Weather History Graph

Search for Another Location

Airport or City:

Trip Planner

Search our weather history database for the weather conditions in past years. The results will help you decide how hot, cold, wet, or windy it might be!

Date:

Astronomy

Jun. 05, 2013 Rise Set
Actual Time 5:21 AM CDT 8:48 PM CDT
Civil Twilight 4:44 AM CDT 9:25 PM CDT
Nautical Twilight 3:56 AM CDT 10:13 PM CDT
Astronomical Twilight 2:54 AM CDT 11:15 PM CDT
Moon 3:31 AM CDT (6/5) 6:09 PM CDT (6/5)
Length of Visible Light 16h 40m
Length of Day
15h 27m
Waning Crescent, 8% of the Moon is Illuminated
Jun 5
Waning Crescent
Jun 8
New
Jun 16
First Quarter
Jun 23
Full
Jun 29
Last Quarter

Hourly Weather History & Observations

Time (CDT) Temp. Dew Point Humidity Pressure Visibility Wind Dir Wind Speed Gust Speed Precip Events Conditions
12:56 AM 53.1 °F 51.1 °F 93% 30.11 in 10.0 mi East 9.2 mph - 0.01 in   Overcast
1:56 AM 53.1 °F 51.1 °F 93% 30.10 in 10.0 mi ENE 9.2 mph - 0.00 in   Overcast
2:32 AM 51.8 °F 51.8 °F 100% 30.07 in 7.0 mi ESE 10.4 mph - 0.00 in Rain Light Rain
2:48 AM 51.8 °F 51.8 °F 100% 30.08 in 7.0 mi ESE 10.4 mph 18.4 mph 0.00 in Rain Light Rain
2:56 AM 52.0 °F 51.1 °F 97% 30.08 in 6.0 mi ESE 12.7 mph - 0.00 in Rain Light Rain
3:23 AM 51.8 °F 50.0 °F 94% 30.06 in 10.0 mi East 9.2 mph - 0.00 in   Overcast
3:41 AM 51.8 °F 50.0 °F 94% 30.06 in 10.0 mi ESE 10.4 mph - 0.00 in Thunderstorm Overcast
3:56 AM 52.0 °F 50.0 °F 93% 30.08 in 9.0 mi ESE 3.5 mph - 0.01 in Rain Rain
4:19 AM 51.8 °F 51.8 °F 100% 30.07 in 5.0 mi East 3.5 mph - 0.08 in Rain , Thunderstorm Rain
4:35 AM 51.8 °F 50.0 °F 94% 30.05 in 7.0 mi East 9.2 mph - 0.10 in Rain , Thunderstorm Light Thunderstorms and Rain
4:48 AM 51.8 °F 51.8 °F 100% 30.05 in 7.0 mi ENE 6.9 mph - 0.11 in Rain , Thunderstorm Light Rain
4:56 AM 52.0 °F 51.1 °F 97% 30.06 in 9.0 mi East 6.9 mph - 0.11 in Rain Light Rain
5:56 AM 52.0 °F 51.1 °F 97% 30.06 in 3.0 mi East 5.8 mph - 0.04 in Rain Light Rain
6:07 AM 51.8 °F 51.8 °F 100% 30.06 in 2.5 mi East 6.9 mph - 0.08 in Rain Heavy Rain
6:40 AM 51.8 °F 50.0 °F 94% 30.06 in 8.0 mi ESE 10.4 mph - 0.08 in   Overcast
6:56 AM 52.0 °F 50.0 °F 93% 30.06 in 8.0 mi East 6.9 mph - 0.08 in   Overcast
7:03 AM 51.8 °F 50.0 °F 94% 30.05 in 10.0 mi East 5.8 mph - N/A   Overcast
7:13 AM 51.8 °F 50.0 °F 94% 30.05 in 10.0 mi East 6.9 mph - N/A   Overcast
7:27 AM 51.8 °F 50.0 °F 94% 30.04 in 10.0 mi East 8.1 mph - N/A   Overcast
7:34 AM 51.8 °F 50.0 °F 94% 30.03 in 10.0 mi East 8.1 mph - N/A   Overcast
7:56 AM 53.1 °F 51.1 °F 93% 30.05 in 10.0 mi ESE 6.9 mph - N/A   Overcast
8:56 AM 53.1 °F 51.1 °F 93% 30.05 in 10.0 mi ESE 6.9 mph - N/A   Overcast
9:03 AM 53.6 °F 50.0 °F 88% 30.04 in 10.0 mi ESE 4.6 mph - N/A   Overcast
9:51 AM 53.6 °F 50.0 °F 88% 30.04 in 10.0 mi ESE 9.2 mph - 0.00 in Rain Light Rain
9:56 AM 53.1 °F 50.0 °F 89% 30.04 in 10.0 mi ESE 8.1 mph - 0.00 in Rain Light Rain
10:03 AM 53.6 °F 50.0 °F 88% 30.03 in 10.0 mi SE 9.2 mph - 0.00 in   Overcast
10:47 AM 53.6 °F 51.8 °F 94% 30.02 in 8.0 mi ESE 8.1 mph - 0.01 in Rain Light Rain
10:56 AM 53.1 °F 51.1 °F 93% 30.03 in 10.0 mi ESE 6.9 mph - 0.01 in Rain Light Rain
11:03 AM 53.6 °F 51.8 °F 94% 30.02 in 10.0 mi ESE 9.2 mph - 0.00 in Rain Light Rain
11:22 AM 53.6 °F 51.8 °F 94% 30.03 in 10.0 mi ESE 6.9 mph - 0.00 in   Overcast
11:39 AM 53.6 °F 51.8 °F 94% 30.02 in 10.0 mi ESE 11.5 mph - 0.00 in Rain Light Rain
11:56 AM 53.1 °F 51.1 °F 93% 30.03 in 8.0 mi ESE 8.1 mph - 0.00 in Rain Light Rain
12:19 PM 53.6 °F 51.8 °F 94% 30.02 in 10.0 mi ESE 5.8 mph - 0.00 in   Overcast
12:56 PM 54.0 °F 52.0 °F 93% 30.02 in 10.0 mi ESE 8.1 mph - 0.00 in   Overcast
1:12 PM 53.6 °F 51.8 °F 94% 30.01 in 10.0 mi ESE 8.1 mph - N/A Thunderstorm Overcast
1:27 PM 53.6 °F 51.8 °F 94% 30.00 in 10.0 mi ESE 6.9 mph - N/A   Overcast
1:56 PM 54.0 °F 52.0 °F 93% 30.01 in 10.0 mi ESE 6.9 mph - N/A   Overcast
2:56 PM 54.0 °F 52.0 °F 93% 29.99 in 4.0 mi ESE 5.8 mph - N/A   Overcast
3:28 PM 53.6 °F 53.6 °F 100% 29.98 in 1.8 mi ESE 4.6 mph - 0.00 in Rain Light Rain
3:43 PM 53.6 °F 53.6 °F 100% 29.97 in 2.5 mi Calm Calm - 0.01 in Rain Light Rain
3:51 PM 53.6 °F 53.6 °F 100% 29.97 in 1.8 mi ENE 3.5 mph - 0.02 in Rain Light Rain
3:56 PM 54.0 °F 53.1 °F 97% 29.98 in 1.5 mi Calm Calm - 0.02 in Rain Light Rain
4:38 PM 53.6 °F 53.6 °F 100% 29.96 in 2.0 mi ESE 4.6 mph - 0.03 in Rain Light Rain
4:56 PM 55.0 °F 54.0 °F 96% 29.97 in 2.0 mi Calm Calm - 0.03 in   Overcast
5:14 PM 55.4 °F 53.6 °F 94% 29.97 in 3.0 mi Calm Calm - 0.00 in Rain Light Rain
5:31 PM 55.4 °F 53.6 °F 94% 29.96 in 6.0 mi Calm Calm - 0.00 in   Overcast
5:56 PM 55.0 °F 54.0 °F 96% 29.97 in 4.0 mi Calm Calm - 0.00 in   Overcast
6:09 PM 55.4 °F 55.4 °F 100% 29.96 in 3.0 mi Calm Calm - N/A   Overcast
6:28 PM 55.4 °F 55.4 °F 100% 29.96 in 2.5 mi Calm Calm - 0.01 in   Overcast
6:56 PM 55.9 °F 55.0 °F 97% 29.96 in 2.0 mi Calm Calm - 0.01 in   Overcast
7:56 PM 55.0 °F 55.0 °F 100% 29.96 in 2.0 mi NNE 3.5 mph - 0.01 in Rain Light Rain
8:05 PM 55.4 °F 55.4 °F 100% 29.96 in 1.8 mi NNE 4.6 mph - 0.01 in Rain Light Rain
8:13 PM 55.4 °F 53.6 °F 94% 29.96 in 2.5 mi NNE 4.6 mph - 0.01 in Rain Light Rain
8:21 PM 55.4 °F 55.4 °F 100% 29.96 in 3.0 mi NE 5.8 mph - 0.01 in Rain Light Rain
8:29 PM 55.4 °F 55.4 °F 100% 29.95 in 2.5 mi NE 4.6 mph - 0.02 in Rain Light Rain
8:37 PM 55.4 °F 53.6 °F 94% 29.95 in 2.5 mi NE 6.9 mph - 0.02 in Rain Light Rain
8:49 PM 55.4 °F 55.4 °F 100% 29.95 in 3.0 mi ENE 6.9 mph - 0.03 in Rain Light Rain
8:56 PM 55.0 °F 55.0 °F 100% 29.96 in 4.0 mi ENE 4.6 mph - 0.03 in   Overcast
9:56 PM 55.0 °F 55.0 °F 100% 29.96 in 4.0 mi ENE 5.8 mph - N/A   Overcast
10:18 PM 55.4 °F 53.6 °F 94% 29.96 in 3.0 mi ESE 9.2 mph - 0.01 in Rain Light Rain
10:56 PM 53.1 °F 52.0 °F 96% 29.97 in 4.0 mi ESE 10.4 mph - 0.01 in   Overcast
11:56 PM 52.0 °F 51.1 °F 97% 29.96 in 9.0 mi East 6.9 mph - N/A   Overcast